Location: *
(46.3500°N, 10.9000°E)
Time: 09:11:00
(UTC+00:00)

Vanguard 2 - Pass Details

Date: 05 December 2021
Orbit: 554 x 2935 km, 32.9° (Epoch: 27 January)

Event Time Altitude Azimuth Distance (km) Brightness Sun altitude
Rises 16:26:38 0° 256° (WSW) 3,636 13.1 -9.4°
Reaches altitude 10° 16:29:36 10° 239° (WSW) 2,990 12.1 -9.9°
Maximum altitude 16:34:56 21° 193° (SSW) 2,788 10.8 -10.8°
Drops below altitude 10° 16:42:16 10° 151° (SSE) 4,268 11.2 -12.0°
Sets 16:47:41 0° 138° (SE) 5,738 11.8 -12.8°
